White Plains, CT

7:30 PM EST on November 11, 2019 (GMT -0500)
Westchester County

Weather History for KHPN - September, 2019

Change the Weather History Date:

Friday, September 6, 2019

  Actual Average Record
Temperature  
Mean Temperature 60 °F -  
Max Temperature 64 °F 74 °F 98 °F (1983)
Min Temperature 57 °F 58 °F 46 °F (1988)
Degree Days  
Heating Degree Days 4    
Growing Degree Days 10 (Base 50)    
Moisture  
Dew Point 54 °F    
Average Humidity 80    
Maximum Humidity 90    
Minimum Humidity 67    
Precipitation  
Precipitation 0.02 in - - ()
Sea Level Pressure  
Sea Level Pressure 29.89 in    
Wind  
Wind Speed 6 mph ()    
Max Wind Speed 14 mph    
Max Gust Speed 29 mph    
Visibility 9.4 miles    
Events Rain    
Averages and records for this station are not official NWS values.
T = Trace of Precipitation, MM = Missing Value Source: Averaged Metar Reports

Daily Weather History Graph

Daily Weather History Graph

Search for Another Location

Airport or City:

Astronomy

Sep. 06, 2019 Rise Set
Actual Time 6:26 AM EDT 7:19 PM EDT
Civil Twilight 5:58 AM EDT 7:47 PM EDT
Nautical Twilight 5:24 AM EDT 8:20 PM EDT
Astronomical Twilight 4:50 AM EDT 8:55 PM EDT
Moon 2:35 PM EDT (9/6) No Moon Set
Length of Visible Light 13h 49m
Length of Day
12h 53m
First Quarter, 55% of the Moon is Illuminated
Sep 6
First Quarter
Sep 14
Full
Sep 21
Last Quarter
Sep 28
New
Oct 5
First Quarter

Hourly Weather History & Observations

Time (EDT) Temp. Dew Point Humidity Pressure Visibility Wind Dir Wind Speed Gust Speed Precip Events Conditions
12:56 AM 60.1 °F 57.0 °F 90% 30.02 in 10.0 mi Calm Calm - N/A   Clear
1:56 AM 60.1 °F 55.0 °F 83% 30.01 in 10.0 mi NW 3.5 mph - N/A   Clear
2:56 AM 57.9 °F 54.0 °F 87% 29.99 in 10.0 mi Calm Calm - N/A   Clear
3:56 AM 60.1 °F 54.0 °F 80% 29.99 in 10.0 mi NE 6.9 mph - N/A   Clear
4:56 AM 59.0 °F 55.0 °F 87% 29.99 in 10.0 mi NNE 5.8 mph - N/A   Partly Cloudy
5:56 AM 59.0 °F 55.0 °F 87% 29.98 in 10.0 mi NNE 6.9 mph - N/A   Partly Cloudy
6:56 AM 59.0 °F 54.0 °F 83% 29.97 in 10.0 mi NNE 6.9 mph - N/A   Clear
7:56 AM 59.0 °F 55.0 °F 87% 29.96 in 10.0 mi East 5.8 mph - N/A   Partly Cloudy
8:56 AM 61.0 °F 55.0 °F 81% 29.97 in 10.0 mi ENE 8.1 mph - N/A   Partly Cloudy
9:56 AM 63.0 °F 55.0 °F 75% 29.96 in 10.0 mi ENE 13.8 mph 25.3 mph N/A   Partly Cloudy
10:56 AM 63.0 °F 54.0 °F 72% 29.93 in 10.0 mi ENE 8.1 mph - N/A   Scattered Clouds
11:56 AM 63.0 °F 54.0 °F 72% 29.93 in 10.0 mi ENE 11.5 mph - N/A   Mostly Cloudy
12:56 PM 64.0 °F 54.0 °F 70% 29.91 in 10.0 mi ENE 12.7 mph - N/A   Scattered Clouds
1:56 PM 64.0 °F 53.1 °F 67% 29.88 in 10.0 mi ENE 12.7 mph 18.4 mph N/A   Mostly Cloudy
2:56 PM 64.0 °F 53.1 °F 67% 29.83 in 10.0 mi ENE 11.5 mph 28.8 mph N/A   Overcast
3:56 PM 63.0 °F 53.1 °F 70% 29.82 in 10.0 mi ENE 11.5 mph 18.4 mph 0.00 in   Overcast
4:56 PM 62.1 °F 54.0 °F 75% 29.84 in 10.0 mi East 8.1 mph - N/A   Mostly Cloudy
5:56 PM 60.1 °F 57.0 °F 90% 29.82 in 4.0 mi NE 6.9 mph - 0.00 in Rain Light Rain
6:56 PM 57.9 °F 54.0 °F 87% 29.81 in 2.0 mi NNE 11.5 mph 21.9 mph 0.02 in Rain Light Rain
7:18 PM 57.9 °F 54.0 °F 87% 29.80 in 10.0 mi North 11.5 mph - 0.00 in   Overcast
7:56 PM 59.0 °F 54.0 °F 83% 29.80 in 10.0 mi North 10.4 mph - 0.00 in   Overcast
8:56 PM 59.0 °F 55.0 °F 87% 29.78 in 10.0 mi North 12.7 mph - N/A   Overcast
9:56 PM 59.0 °F 53.1 °F 81% 29.77 in 10.0 mi North 8.1 mph - N/A   Overcast
10:56 PM 59.0 °F 53.1 °F 81% 29.77 in 10.0 mi North 10.4 mph - N/A   Overcast
11:56 PM 59.0 °F 54.0 °F 83% 29.76 in 10.0 mi NNW 13.8 mph - 0.00 in   Overcast